Regional Weather Roundup
Issued by NWS State College, PA

Home | Current Version | Previous Version | Graphics & Text | Print | Product List | Glossary Off
Versions: 1 2 3 4 5 6 7 8 9 10 11 12 13 14 15 16 17 18 19 20 21 22 23 24 25 26 27 28 29 30 31 32 33 34 35 36 37 38 39 40 41 42 43 44 45 46 47 48 49 50

000
ASUS41 KCTP 030503
RWRCTP

REGIONAL WEATHER ROUNDUP
NATIONAL WEATHER SERVICE STATE COLLEGE PA
100 AM EDT THU SEP 03 2015

Note: "fair" indicates few or no clouds below 12,000 feet with no
significant weather and/or obstructions to visibility.

* = STATION THAT DOES NOT REPORT PRECIPITATION /E.G. RAIN...SNOW...ETC/
    THUNDER OR FOG.

PAZ002>004-007>009-013>016-020>023-029>032-030600-
WESTERN PENNSYLVANIA

CITY           SKY/WX    TMP DP  RH WIND       PRES   REMARKS
ERIE           PTCLDY    72  66  81 S6        29.96F
MEADVILLE      PTCLDY    71  66  84 CALM      30.01F
FRANKLIN*      CLOUDY    66  64  94 CALM      30.03F
NEW CASTLE     FAIR      69  69 100 CALM      30.01S
BEAVER COUNTY  NOT AVBL
BUTLER*        PTCLDY    66  64  94 CALM      30.03S
PITTSBURGH INT MOCLDY    73  66  78 CALM      30.01S
PITTSBURGH     PTCLDY    72  62  71 S6        30.01S
INDIANA*       CLEAR     70  66  88 CALM      30.05S
LATROBE        NOT AVBL
WASHINGTON CO* CLEAR     64  63  94 CALM      30.03S
$$

PAZ004>006-010>012-017>019-024>028-033>037-041-042-045-046-049>053-030600-
CENTRAL PENNSYLVANIA

CITY           SKY/WX    TMP DP  RH WIND       PRES   REMARKS
BRADFORD       PTCLDY    61  59  93 CALM      30.04F FOG
DUBOIS         CLEAR     69  65  86 CALM      30.02F FOG
CLEARFIELD     CLEAR     69  65  86 CALM      30.02S
JOHNSTOWN      CLEAR     70  63  78 SW8       30.06S
ALTOONA        CLEAR     68  65  90 W5        30.02F
STATE COLLEGE  PTCLDY    68  66  94 CALM      29.99S
WILLIAMSPORT   CLEAR     71  67  87 CALM      29.93F
SELINSGROVE    PTCLDY    69  67  93 CALM      29.95S FOG
FT INDIANTOWN  PTCLDY    69  66  92 CALM      29.94S
CAPITAL CITY   CLEAR     74  65  73 NW3       29.94S
HARRISBURG     PTCLDY    76  65  68 NW12      29.93S
YORK           CLEAR     66  64  93 CALM      29.94F
$$

PAZ038>040-043-044-047-048-054-055-060>062-067>071-030600-
EASTERN PENNSYLVANIA

CITY           SKY/WX    TMP DP  RH WIND       PRES   REMARKS
SCRANTON       CLEAR     69  62  78 E6        29.95F
MOUNT POCONO   CLEAR     63  61  93 NW5       29.99F FOG
ALLENTOWN      CLEAR     71  65  81 SW3       29.92F
QUAKERTOWN*    CLEAR     66  64  94 CALM      29.94S
READING        CLEAR     73  67  81 CALM      29.92S
LANCASTER      CLEAR     72  68  87 W7        29.93F
COATESVILLE    CLEAR     72  66  83 NW6       29.95S
POTTSTOWN      CLEAR     71  65  81 CALM      29.94S
BLUE BELL      CLEAR     70  66  88 CALM      29.90F
DOYLESTOWN     CLEAR     69  65  86 CALM      29.91S
WILLOW GROVE   NOT AVBL
NORTH PHILA    CLEAR     76  62  62 W6        29.91F
PHILADELPHIA   CLEAR     77  70  79 W7        29.91F
$$


USA.gov is the U.S. government's official web portal to all federal, state and local government web resources and services.